Temperature
16 16 16 16 16 16 16 16 16 15 15 14 14 14 13 13 13 13 13 13 13 13 13 13 13 13 13 13 13 12 12 12 12 12 12 12 12 12
16 16 16 16 15 15 15 15 15 15 15 14 14 14 13 13 13 13 13 13 13 13 13 13 12 12 12 12 12 12 12 12 12 12 12 12 11 11
15 15 15 15 15 15 15 15 15 15 15 14 14 13 13 13 12 12 12 12 12 12 12 12 12 12 12 12 12 11 11 11 11 11 11 11 11 11
15 15 15 15 15 15 15 14 14 14 14 14 13 13 12 12 12 12 12 12 12 12 12 11 11 11 11 11 11 11 11 11 11 10 10 10 10 10
15 15 15 14 14 14 14 14 14 14 14 13 13 13 12 12 12 12 11 11 11 11 11 11 11 11 11 10 10 10 10 10 10 10 10 10 9 9
15 14 14 14 14 14 14 14 14 14 13 13 13 12 12 12 12 12 11 11 11 11 11 11 10 10 10 10 10 10 10 9 9 9 9 9 9 9
14 14 14 14 14 14 14 13 13 13 13 13 13 12 12 12 12 12 11 11 11 11 10 10 10 10 10 10 9 9 9 9 9 9 9 9 8 8
14 14 14 14 14 13 13 13 13 13 13 13 12 12 12 12 11 11 11 11 11 10 10 10 10 10 9 9 9 9 9 9 9 8 8 8 8 8
13 13 13 13 13 13 13 13 13 12 12 12 12 12 11 11 11 11 11 11 10 10 10 10 9 9 9 9 9 9 8 8 8 8 8 8 8 8
13 13 13 13 12 12 12 12 12 12 12 12 11 11 11 11 11 11 11 11 10 10 10 10 10 9 9 9 8 8 8 8 8 8 8 8 8 7
13 13 12 12 12 12 12 12 12 12 11 11 11 11 11 11 11 11 10 10 10 10 9 9 9 9 9 9 8 8 8 8 8 8 7 7 7 7
12 12 12 12 12 12 11 11 11 11 11 11 11 11 11 10 10 10 10 10 10 10 9 9 9 9 9 9 8 8 8 8 8 7 7 7 7 7
12 12 12 12 12 11 11 11 11 11 11 11 10 10 10 10 10 10 10 10 10 10 9 9 9 9 9 9 9 8 8 8 7 7 7 7 7 7
12 12 11 11 11 11 11 11 11 11 11 11 11 10 10 10 10 9 9 9 9 9 9 8 9 9 9 9 9 9 8 8 7 7 7 7 7 7
11 11 11 11 11 11 11 11 10 10 11 11 11 10 10 10 9 9 9 9 9 9 8 8 8 8 8 9 9 9 8 8 8 7 7 7 7 7
11 11 11 11 11 11 10 10 10 10 10 11 10 10 10 10 9 9 9 9 9 9 8 8 8 8 8 8 9 9 8 8 8 7 7 7 7 7
11 11 11 11 11 11 11 10 10 10 10 10 10 10 10 10 10 9 9 9 9 9 9 8 8 8 8 8 8 8 8 8 8 7 7 7 7 7
11 11 11 11 11 11 11 10 10 10 10 10 10 10 10 10 10 9 9 9 9 9 9 9 8 8 8 8 8 8 8 8 8 7 7 7 7 7
10 11 11 11 10 10 10 10 10 10 10 10 10 10 10 10 10 9 9 9 9 9 9 9 9 8 9 9 8 8 8 8 7 7 7 7 7 7
10 10 10 10 10 10 10 10 10 10 9 9 9 9 9 9 9 9 9 9 9 9 9 9 8 8 8 8 8 8 8 7 7 7 7 7 7 7
10 10 10 10 10 10 10 9 9 9 9 9 9 9 9 9 9 9 9 8 8 9 9 9 8 8 8 7 8 8 8 7 7 7 7 7 7 7
10 10 10 10 9 9 9 9 9 9 9 8 8 8 8 8 8 8 9 8 8 8 8 8 8 8 7 8 8 8 8 7 7 7 7 6 6 6
10 9 9 9 9 9 9 9 9 9 8 8 8 8 8 8 8 8 8 8 8 8 8 8 8 8 8 8 8 8 8 7 7 7 7 6 6 6
Wind_Speed
2 2 2 2 2 2 3 3 3 2 1 2 2 2 4 5 6 7 8 10 9 9 9 9 9 9 9 9 9 9 8 9 9 9 9 9 8 8
1 1 2 2 2 2 2 2 3 3 1 1 2 2 3 5 6 7 8 11 10 9 9 8 8 8 9 9 9 9 9 9 9 9 9 9 9 9
1 0 1 1 1 1 1 1 1 2 2 1 2 3 3 4 5 6 6 6 8 9 9 9 8 9 9 8 8 9 9 9 9 9 9 9 9 9
0 1 1 0 0 1 0 1 1 2 3 4 3 3 4 5 5 4 5 6 7 10 9 9 8 8 7 7 8 8 8 8 8 8 8 8 8 8
0 0 1 1 1 0 0 1 2 2 3 4 4 4 4 4 5 4 4 4 5 8 10 9 8 7 7 7 7 7 7 7 7 7 7 7 7 6
0 1 1 1 1 0 1 1 2 3 4 4 5 4 4 4 3 4 3 3 2 4 6 6 8 7 7 6 6 6 6 6 6 6 6 6 6 5
1 1 2 4 5 4 2 1 2 2 4 4 4 4 3 3 3 3 3 3 3 2 3 4 5 5 6 7 6 5 5 5 5 5 5 5 4 4
2 2 3 4 6 7 8 7 5 2 2 3 3 3 3 3 2 3 3 3 2 2 2 2 2 2 3 4 6 5 4 3 3 4 3 3 3 2
3 2 3 5 4 5 6 6 6 6 4 0 2 1 2 2 3 3 2 1 1 2 2 2 2 1 2 5 7 4 3 3 3 3 3 2 2 2
3 3 4 4 3 3 4 5 4 4 2 1 2 1 1 1 2 2 2 3 2 2 1 1 1 1 1 5 8 5 4 4 4 3 3 3 3 4
3 3 3 4 4 2 3 4 4 4 6 6 6 5 5 3 0 2 2 3 2 3 1 2 1 1 1 2 6 8 7 6 5 5 5 4 5 6
4 4 4 3 3 1 2 3 3 3 3 5 5 4 4 4 3 2 2 2 2 2 2 1 1 1 1 1 2 5 6 8 8 8 7 6 6 6
3 3 4 5 4 1 1 2 1 1 2 3 3 3 3 3 2 1 1 2 2 0 1 2 1 2 2 1 2 2 3 3 5 7 10 10 9 7
2 2 4 6 4 2 1 2 1 4 3 3 3 2 2 2 2 1 1 0 1 1 0 1 2 2 3 2 2 2 3 3 4 3 4 7 10 11
2 5 5 5 5 4 4 3 4 3 2 2 2 2 2 2 2 3 3 3 2 2 2 2 3 3 4 3 3 2 3 3 3 3 4 4 5 6
3 5 6 6 4 2 4 5 4 2 2 2 2 2 2 2 3 2 3 3 3 3 4 4 4 4 4 4 4 3 3 3 3 3 4 4 5 6
3 4 4 4 4 4 4 3 3 3 3 3 3 3 2 2 2 2 2 3 3 3 3 4 5 6 6 6 5 4 4 4 3 2 4 6 4 5
4 4 4 4 4 4 4 3 4 3 3 4 3 3 3 3 3 3 3 4 4 4 4 3 3 4 5 5 5 6 5 5 4 3 5 6 6 4
5 5 4 4 4 4 4 4 3 3 3 3 4 4 4 4 4 4 4 4 5 4 4 4 4 5 6 5 4 7 5 5 5 5 5 6 6 5
6 5 5 4 4 4 4 3 3 3 4 4 5 5 5 5 5 5 5 5 5 5 5 4 4 5 6 6 5 5 8 6 5 6 6 6 6 4
6 5 5 4 4 4 4 4 4 4 4 5 5 5 5 5 5 5 5 4 6 6 6 5 2 3 6 6 7 6 4 8 6 6 7 7 6 6
6 6 5 5 5 5 5 5 5 5 5 5 5 5 5 5 6 6 6 5 6 6 7 5 4 5 6 7 8 7 6 5 8 11 9 8 6 7
5 5 4 4 5 5 5 5 5 5 5 5 5 5 5 5 6 6 6 6 6 6 7 6 5 5 6 7 8 8 7 6 6 6 8 12 13 12
Wind_Direction
273 263 270 272 265 255 241 232 230 227 223 145 119 87 94 86 87 87 83 88 95 96 94 90 87 84 81 79 78 80 81 81 79 77 75 74 73 71
312 323 294 289 276 251 241 235 239 233 237 105 102 106 98 102 100 99 96 96 90 94 94 92 89 88 86 82 80 81 81 81 80 80 78 76 73 72
354 19 349 334 306 267 249 220 213 179 167 136 114 117 119 110 109 106 105 103 96 98 95 92 91 90 88 85 85 86 87 87 85 82 82 80 76 75
15 13 347 340 302 285 247 179 170 170 167 149 146 141 126 122 117 117 109 105 102 105 107 101 96 92 90 90 91 92 91 91 90 89 87 84 81 79
358 353 338 328 300 355 213 160 168 163 156 155 151 139 136 135 131 116 108 112 114 122 121 114 109 104 101 97 95 95 94 94 93 92 89 88 85 81
60 30 11 347 337 343 138 142 153 145 146 154 146 145 140 150 154 147 143 137 124 122 112 121 128 131 123 115 107 102 103 104 104 103 98 94 90 87
104 85 70 59 44 29 38 104 143 154 152 148 149 149 150 166 179 182 165 156 142 135 142 140 144 142 142 138 121 108 109 109 108 107 104 101 100 98
121 115 111 100 89 75 59 56 51 103 136 155 158 156 166 181 179 187 184 176 162 158 188 149 146 134 137 123 118 121 122 119 116 116 120 125 130 133
106 102 92 95 105 100 98 103 80 59 46 55 143 162 166 178 189 189 187 201 174 136 185 171 165 169 148 117 129 141 144 151 159 156 155 160 176 199
108 107 106 106 99 101 111 104 99 91 88 117 117 124 109 144 198 199 180 178 175 138 193 249 185 195 157 139 147 162 174 182 192 200 206 213 228 236
120 113 119 121 82 52 123 120 114 119 105 94 79 85 82 97 178 214 186 198 195 159 169 254 209 235 203 166 160 172 185 194 205 215 224 233 244 248
137 134 109 107 98 49 138 133 135 128 129 133 134 150 149 150 185 243 246 238 227 177 143 230 230 242 222 187 180 181 193 198 206 212 217 226 239 253
144 144 124 116 118 116 248 149 145 212 174 167 161 158 156 155 172 176 308 303 298 304 124 213 250 245 260 246 215 212 225 228 218 218 214 219 227 244
150 136 120 128 140 158 170 120 214 245 209 184 182 177 174 168 152 152 143 24 350 346 11 246 271 268 266 267 257 230 232 231 238 246 238 214 225 237
120 82 114 151 173 172 166 196 221 226 218 208 196 189 185 167 180 178 177 186 202 213 189 232 256 254 259 268 271 268 257 244 233 248 255 254 252 245
173 155 171 188 204 174 177 198 216 221 238 231 227 209 187 183 208 211 210 205 210 191 184 209 237 253 263 274 278 274 269 260 253 256 269 270 259 253
184 192 192 184 193 195 197 200 215 213 223 234 229 217 215 217 224 229 244 246 246 241 214 206 214 230 248 261 269 275 277 267 255 259 268 271 264 255
216 213 211 211 214 213 211 208 214 217 226 236 234 233 231 230 228 227 240 249 254 256 253 239 234 243 246 231 233 262 268 273 272 256 265 272 272 265
221 230 229 229 232 231 228 229 229 216 222 236 239 240 241 243 240 238 241 248 257 259 256 247 248 257 268 268 223 221 262 274 274 272 267 270 275 276
228 237 239 238 236 239 239 240 238 230 231 243 248 248 247 247 247 248 249 253 258 259 257 252 252 260 274 286 285 255 221 251 267 273 279 279 277 266
224 232 238 242 240 238 238 236 239 239 240 248 249 251 251 253 255 261 263 250 260 264 265 264 264 253 267 270 270 267 239 211 238 265 276 276 278 275
231 235 238 240 236 234 228 230 234 236 235 239 245 246 246 250 254 259 264 263 260 266 271 268 243 244 257 264 271 273 266 245 225 224 239 259 277 285
238 241 238 235 235 237 239 237 238 238 234 235 237 237 241 248 255 257 260 263 267 268 268 269 265 257 260 265 272 276 272 267 262 248 234 220 223 231
Height
1548 1548 1548 1548 1548 1548 1549 1550 1551 1550 1551 1552 1552 1552 1552 1551 1551 1551 1550 1549 1549 1549 1549 1549 1548 1548 1548 1548 1547 1547 1547 1547 1546 1546 1546 1546 1545 1545
1546 1546 1546 1546 1546 1547 1547 1547 1548 1549 1549 1550 1550 1550 1550 1550 1550 1550 1550 1549 1548 1548 1548 1547 1547 1547 1547 1546 1546 1546 1545 1545 1545 1544 1544 1544 1544 1543
1545 1544 1544 1544 1545 1545 1545 1545 1545 1546 1547 1548 1548 1548 1548 1549 1549 1550 1550 1549 1548 1547 1547 1547 1546 1546 1546 1545 1545 1545 1545 1544 1544 1543 1543 1543 1542 1542
1544 1543 1543 1543 1543 1543 1543 1544 1544 1544 1545 1545 1547 1547 1548 1548 1548 1549 1549 1549 1548 1547 1547 1546 1546 1546 1545 1545 1544 1544 1544 1544 1543 1543 1542 1542 1541 1541
1543 1542 1542 1542 1542 1542 1542 1542 1543 1544 1544 1544 1545 1546 1547 1548 1548 1548 1549 1548 1548 1547 1547 1546 1546 1546 1545 1545 1544 1544 1543 1543 1542 1542 1542 1541 1540 1540
1541 1541 1541 1541 1541 1541 1541 1541 1542 1542 1543 1543 1544 1545 1546 1546 1547 1548 1548 1548 1548 1548 1547 1546 1546 1545 1545 1545 1544 1544 1543 1543 1542 1542 1541 1540 1540 1539
1540 1540 1540 1540 1540 1540 1540 1540 1541 1541 1542 1542 1543 1544 1545 1545 1546 1547 1547 1547 1547 1547 1546 1546 1546 1545 1545 1544 1544 1543 1543 1542 1542 1541 1541 1540 1540 1539
1540 1540 1539 1539 1539 1539 1539 1539 1540 1541 1541 1542 1542 1542 1543 1544 1545 1545 1546 1546 1546 1546 1545 1546 1546 1545 1545 1544 1543 1543 1542 1542 1541 1541 1540 1540 1539 1538
1539 1539 1539 1539 1539 1539 1539 1539 1539 1539 1540 1541 1541 1542 1542 1542 1543 1544 1544 1544 1544 1544 1544 1545 1545 1544 1544 1543 1542 1542 1541 1541 1540 1540 1539 1539 1538 1538
1538 1538 1538 1538 1538 1538 1539 1539 1539 1539 1539 1540 1540 1541 1541 1541 1541 1542 1542 1542 1542 1543 1543 1544 1543 1543 1543 1542 1541 1541 1540 1540 1539 1539 1538 1538 1537 1536
1537 1537 1537 1537 1537 1538 1539 1539 1539 1539 1539 1539 1539 1539 1540 1540 1540 1541 1541 1541 1541 1542 1542 1542 1542 1542 1541 1541 1540 1539 1539 1538 1538 1537 1537 1536 1536 1535
1536 1536 1536 1536 1537 1537 1538 1538 1539 1539 1539 1539 1538 1539 1539 1539 1539 1539 1540 1540 1540 1541 1540 1540 1540 1540 1540 1540 1539 1538 1538 1537 1536 1536 1535 1535 1534 1533
1535 1536 1536 1535 1536 1536 1537 1538 1538 1538 1539 1539 1539 1539 1539 1539 1539 1538 1538 1539 1539 1539 1539 1538 1539 1538 1538 1538 1538 1537 1537 1536 1535 1534 1534 1533 1532 1532
1535 1535 1535 1535 1535 1536 1536 1536 1537 1537 1538 1538 1538 1538 1538 1538 1537 1537 1536 1536 1536 1537 1536 1537 1537 1536 1536 1536 1536 1535 1535 1534 1534 1533 1532 1531 1530 1530
1534 1534 1534 1535 1535 1535 1535 1536 1536 1537 1538 1537 1537 1537 1537 1537 1536 1535 1535 1535 1535 1535 1535 1534 1535 1535 1535 1534 1534 1533 1533 1532 1531 1531 1530 1530 1529 1528
1533 1533 1534 1534 1534 1534 1534 1535 1535 1536 1536 1536 1536 1536 1535 1535 1535 1535 1534 1534 1534 1533 1532 1532 1532 1532 1532 1532 1532 1531 1530 1530 1529 1528 1527 1527 1526 1526
1531 1532 1533 1533 1533 1533 1533 1533 1534 1533 1533 1534 1534 1534 1533 1533 1533 1533 1532 1532 1532 1531 1531 1530 1530 1529 1529 1529 1529 1528 1528 1527 1526 1525 1524 1524 1524 1523
1530 1531 1531 1531 1531 1531 1531 1531 1531 1531 1531 1532 1531 1531 1531 1531 1531 1530 1530 1530 1529 1529 1528 1528 1528 1527 1527 1525 1525 1525 1524 1524 1523 1522 1521 1521 1520 1520
1528 1529 1529 1529 1529 1529 1529 1529 1529 1529 1529 1529 1529 1529 1529 1529 1528 1528 1527 1527 1527 1526 1526 1525 1525 1524 1524 1522 1521 1521 1521 1520 1520 1519 1518 1518 1517 1516
1525 1526 1526 1526 1526 1526 1526 1526 1526 1526 1526 1526 1526 1526 1526 1525 1525 1525 1524 1524 1524 1523 1522 1522 1521 1521 1520 1520 1519 1518 1517 1517 1516 1516 1515 1514 1513 1512
1521 1522 1522 1522 1522 1522 1522 1522 1522 1522 1522 1522 1522 1522 1522 1522 1522 1521 1521 1520 1520 1520 1519 1518 1518 1517 1517 1516 1515 1514 1514 1512 1512 1511 1511 1510 1509 1508
1517 1518 1518 1518 1518 1519 1518 1518 1518 1518 1518 1518 1518 1518 1518 1518 1518 1518 1517 1517 1516 1516 1515 1515 1514 1513 1513 1512 1511 1510 1509 1509 1507 1506 1506 1506 1505 1504
1513 1513 1514 1514 1514 1515 1515 1514 1514 1514 1514 1514 1514 1514 1514 1514 1514 1514 1513 1513 1513 1512 1511 1511 1510 1509 1509 1508 1507 1506 1505 1505 1504 1503 1502 1500 1500 1500